Time,TemperatureF,DewpointF,PressureIn,WindDirection,WindDirectionDegrees,WindSpeedMPH,WindSpeedGustMPH,Humidity,HourlyPrecipIn,Conditions,Clouds,dailyrainin,SoftwareType,DateUTC
2013-04-18 00:02:00,52.6,38.1,0.00,NNW,336,0.8,1.9,58,0.00,,,0.00,WUHU216CR1000,2013-04-18 07:02:00,
2013-04-18 00:07:00,52.6,38.1,0.00,NNW,336,0.8,1.9,58,0.00,,,0.00,WUHU216CR1000,2013-04-18 07:07:00,
2013-04-18 00:17:00,52.5,38.0,0.00,NNW,347,2.1,4.3,58,0.00,,,0.00,WUHU216CR1000,2013-04-18 07:17:00,
2013-04-18 00:22:00,52.5,38.0,0.00,NNW,347,2.1,4.3,58,0.00,,,0.00,WUHU216CR1000,2013-04-18 07:22:00,
2013-04-18 00:32:00,52.0,38.5,0.00,WNW,299,2.2,4.1,60,0.00,,,0.00,WUHU216CR1000,2013-04-18 07:32:00,
2013-04-18 00:37:00,52.0,38.5,0.00,WNW,299,2.2,4.1,60,0.00,,,0.00,WUHU216CR1000,2013-04-18 07:37:00,
2013-04-18 00:47:00,49.9,39.8,0.00,WSW,256,2.1,3.7,68,0.00,,,0.00,WUHU216CR1000,2013-04-18 07:47:00,
2013-04-18 00:52:00,49.9,39.8,0.00,WSW,256,2.1,3.7,68,0.00,,,0.00,WUHU216CR1000,2013-04-18 07:52:00,
2013-04-18 01:02:00,49.0,39.9,0.00,WSW,250,0.9,3.7,71,0.00,,,0.00,WUHU216CR1000,2013-04-18 08:02:00,
2013-04-18 01:07:00,49.0,39.9,0.00,WSW,250,0.9,3.7,71,0.00,,,0.00,WUHU216CR1000,2013-04-18 08:07:00,
2013-04-18 01:17:00,48.2,39.7,0.00,SE,142,1.7,4.1,72,0.00,,,0.00,WUHU216CR1000,2013-04-18 08:17:00,
2013-04-18 01:22:00,48.2,39.7,0.00,SE,142,1.7,4.1,72,0.00,,,0.00,WUHU216CR1000,2013-04-18 08:22:00,
2013-04-18 01:32:00,48.2,38.8,0.00,East,84,1.0,5.3,70,0.00,,,0.00,WUHU216CR1000,2013-04-18 08:32:00,
2013-04-18 01:37:00,48.2,38.8,0.00,East,84,1.0,5.3,70,0.00,,,0.00,WUHU216CR1000,2013-04-18 08:37:00,
2013-04-18 01:47:00,47.9,39.4,0.00,WSW,238,1.2,3.0,72,0.00,,,0.00,WUHU216CR1000,2013-04-18 08:47:00,
2013-04-18 01:52:00,47.9,39.4,0.00,WSW,238,1.2,3.0,72,0.00,,,0.00,WUHU216CR1000,2013-04-18 08:52:00,
2013-04-18 02:02:00,48.1,39.2,0.00,WSW,256,0.8,2.5,71,0.00,,,0.00,WUHU216CR1000,2013-04-18 09:02:00,
2013-04-18 02:07:00,48.1,39.2,0.00,WSW,256,0.8,2.5,71,0.00,,,0.00,WUHU216CR1000,2013-04-18 09:07:00,
2013-04-18 02:17:00,48.3,39.0,0.00,North,349,2.6,4.7,70,0.00,,,0.00,WUHU216CR1000,2013-04-18 09:17:00,
2013-04-18 02:22:00,48.3,39.0,0.00,North,349,2.6,4.7,70,0.00,,,0.00,WUHU216CR1000,2013-04-18 09:22:00,
2013-04-18 02:32:00,48.3,39.4,0.00,NW,304,1.4,3.2,71,0.00,,,0.00,WUHU216CR1000,2013-04-18 09:32:00,
2013-04-18 02:37:00,48.3,39.4,0.00,NW,304,1.4,3.2,71,0.00,,,0.00,WUHU216CR1000,2013-04-18 09:37:00,
2013-04-18 02:47:00,47.9,39.6,0.00,NW,309,0.9,2.7,73,0.00,,,0.00,WUHU216CR1000,2013-04-18 09:47:00,
2013-04-18 02:52:00,47.9,39.6,0.00,NW,309,0.9,2.7,73,0.00,,,0.00,WUHU216CR1000,2013-04-18 09:52:00,
2013-04-18 03:02:00,47.2,39.7,0.00,West,266,2.4,3.8,75,0.00,,,0.00,WUHU216CR1000,2013-04-18 10:02:00,
2013-04-18 03:07:00,47.2,39.7,0.00,West,266,2.4,3.8,75,0.00,,,0.00,WUHU216CR1000,2013-04-18 10:07:00,
2013-04-18 03:17:00,47.3,39.7,0.00,West,270,0.9,3.5,75,0.00,,,0.00,WUHU216CR1000,2013-04-18 10:17:00,
2013-04-18 03:22:00,47.3,39.7,0.00,West,270,0.9,3.5,75,0.00,,,0.00,WUHU216CR1000,2013-04-18 10:22:00,
2013-04-18 03:32:00,47.4,39.4,0.00,WNW,284,0.8,2.6,74,0.00,,,0.00,WUHU216CR1000,2013-04-18 10:32:00,
2013-04-18 03:37:00,47.4,39.4,0.00,WNW,284,0.8,2.6,74,0.00,,,0.00,WUHU216CR1000,2013-04-18 10:37:00,
2013-04-18 03:47:00,47.6,39.5,0.00,North,357,1.4,3.9,73,0.00,,,0.00,WUHU216CR1000,2013-04-18 10:47:00,
2013-04-18 03:52:00,47.6,39.5,0.00,North,357,1.4,3.9,73,0.00,,,0.00,WUHU216CR1000,2013-04-18 10:52:00,
2013-04-18 04:02:00,45.3,40.4,0.00,SW,214,1.9,3.4,83,0.00,,,0.00,WUHU216CR1000,2013-04-18 11:02:00,
2013-04-18 04:07:00,45.3,40.4,0.00,SW,214,1.9,3.4,83,0.00,,,0.00,WUHU216CR1000,2013-04-18 11:07:00,
2013-04-18 04:17:00,44.5,40.1,0.00,SSW,197,1.2,2.4,84,0.00,,,0.00,WUHU216CR1000,2013-04-18 11:17:00,
2013-04-18 04:22:00,44.5,40.1,0.00,SSW,197,1.2,2.4,84,0.00,,,0.00,WUHU216CR1000,2013-04-18 11:22:00,
2013-04-18 04:32:00,44.5,39.9,0.00,WSW,252,1.2,3.6,84,0.00,,,0.00,WUHU216CR1000,2013-04-18 11:32:00,
2013-04-18 04:37:00,44.5,39.9,0.00,WSW,252,1.2,3.6,84,0.00,,,0.00,WUHU216CR1000,2013-04-18 11:37:00,
2013-04-18 04:47:00,45.5,40.0,0.00,WNW,285,1.3,5.7,81,0.00,,,0.00,WUHU216CR1000,2013-04-18 11:47:00,
2013-04-18 04:52:00,45.5,40.0,0.00,WNW,285,1.3,5.7,81,0.00,,,0.00,WUHU216CR1000,2013-04-18 11:52:00,
2013-04-18 05:02:00,43.9,39.9,0.00,WSW,240,1.8,3.5,86,0.00,,,0.00,WUHU216CR1000,2013-04-18 12:02:00,
2013-04-18 05:07:00,43.9,39.9,0.00,WSW,240,1.8,3.5,86,0.00,,,0.00,WUHU216CR1000,2013-04-18 12:07:00,
2013-04-18 05:17:00,43.1,39.9,0.00,South,187,0.6,2.2,88,0.00,,,0.00,WUHU216CR1000,2013-04-18 12:17:00,
2013-04-18 05:22:00,43.1,39.9,0.00,South,187,0.6,2.2,88,0.00,,,0.00,WUHU216CR1000,2013-04-18 12:22:00,
2013-04-18 05:32:00,43.7,39.6,0.00,SW,232,0.7,2.2,85,0.00,,,0.00,WUHU216CR1000,2013-04-18 12:32:00,
2013-04-18 05:37:00,43.7,39.6,0.00,SW,232,0.7,2.2,85,0.00,,,0.00,WUHU216CR1000,2013-04-18 12:37:00,
2013-04-18 05:47:00,43.7,39.3,0.00,NW,314,0.8,2.5,84,0.00,,,0.00,WUHU216CR1000,2013-04-18 12:47:00,
2013-04-18 05:52:00,43.7,39.3,0.00,NW,314,0.8,2.5,84,0.00,,,0.00,WUHU216CR1000,2013-04-18 12:52:00,
2013-04-18 06:02:00,44.7,39.0,0.00,West,276,1.9,3.3,80,0.00,,,0.00,WUHU216CR1000,2013-04-18 13:02:00,
2013-04-18 06:07:00,44.7,39.0,0.00,West,276,1.9,3.3,80,0.00,,,0.00,WUHU216CR1000,2013-04-18 13:07:00,
2013-04-18 06:17:00,43.3,39.1,0.00,SW,220,0.7,2.0,85,0.00,,,0.00,WUHU216CR1000,2013-04-18 13:17:00,
2013-04-18 06:22:00,43.3,39.1,0.00,SW,220,0.7,2.0,85,0.00,,,0.00,WUHU216CR1000,2013-04-18 13:22:00,
2013-04-18 06:32:00,43.3,39.1,0.00,SSW,208,0.6,1.5,85,0.00,,,0.00,WUHU216CR1000,2013-04-18 13:32:00,
2013-04-18 06:37:00,43.3,39.1,0.00,SSW,208,0.6,1.5,85,0.00,,,0.00,WUHU216CR1000,2013-04-18 13:37:00,
2013-04-18 06:47:00,43.5,39.2,0.00,SW,226,1.3,2.3,85,0.00,,,0.00,WUHU216CR1000,2013-04-18 13:47:00,
2013-04-18 06:52:00,43.5,39.2,0.00,SW,226,1.3,2.3,85,0.00,,,0.00,WUHU216CR1000,2013-04-18 13:52:00,
2013-04-18 07:02:00,43.9,39.4,0.00,WSW,256,1.3,2.7,84,0.00,,,0.00,WUHU216CR1000,2013-04-18 14:02:00,
2013-04-18 07:07:00,43.9,39.4,0.00,WSW,256,1.3,2.7,84,0.00,,,0.00,WUHU216CR1000,2013-04-18 14:07:00,
2013-04-18 07:17:00,46.5,39.6,0.00,West,266,1.2,2.6,77,0.00,,,0.00,WUHU216CR1000,2013-04-18 14:17:00,
2013-04-18 07:22:00,46.5,39.6,0.00,West,266,1.2,2.6,77,0.00,,,0.00,WUHU216CR1000,2013-04-18 14:22:00,
2013-04-18 07:32:00,48.3,40.0,0.00,North,356,0.6,3.2,73,0.00,,,0.00,WUHU216CR1000,2013-04-18 14:32:00,
2013-04-18 07:37:00,48.3,40.0,0.00,North,356,0.6,3.2,73,0.00,,,0.00,WUHU216CR1000,2013-04-18 14:37:00,
2013-04-18 07:47:00,50.2,40.6,0.00,NNE,24,0.9,3.6,69,0.00,,,0.00,WUHU216CR1000,2013-04-18 14:47:00,
2013-04-18 07:52:00,50.2,40.6,0.00,NNE,24,0.9,3.6,69,0.00,,,0.00,WUHU216CR1000,2013-04-18 14:52:00,
2013-04-18 08:02:00,50.7,40.9,0.00,NNW,342,3.3,8.6,69,0.00,,,0.00,WUHU216CR1000,2013-04-18 15:02:00,
2013-04-18 08:07:00,50.7,40.9,0.00,NNW,342,3.3,8.6,69,0.00,,,0.00,WUHU216CR1000,2013-04-18 15:07:00,
2013-04-18 08:17:00,51.3,41.9,0.00,NNW,346,4.2,7.7,70,0.00,,,0.00,WUHU216CR1000,2013-04-18 15:17:00,
2013-04-18 08:22:00,51.3,41.9,0.00,NNW,346,4.2,7.7,70,0.00,,,0.00,WUHU216CR1000,2013-04-18 15:22:00,
2013-04-18 08:32:00,52.9,42.5,0.00,NNW,346,4.3,8.7,68,0.00,,,0.00,WUHU216CR1000,2013-04-18 15:32:00,
2013-04-18 08:37:00,52.9,42.5,0.00,NNW,346,4.3,8.7,68,0.00,,,0.00,WUHU216CR1000,2013-04-18 15:37:00,
2013-04-18 08:47:00,54.5,42.8,0.00,North,351,3.4,8.9,64,0.00,,,0.00,WUHU216CR1000,2013-04-18 15:47:00,
2013-04-18 08:52:00,54.5,42.8,0.00,North,351,3.4,8.9,64,0.00,,,0.00,WUHU216CR1000,2013-04-18 15:52:00,
2013-04-18 09:02:00,56.8,43.6,0.00,North,357,2.7,4.9,61,0.00,,,0.00,WUHU216CR1000,2013-04-18 16:02:00,
2013-04-18 09:07:00,56.8,43.6,0.00,North,357,2.7,4.9,61,0.00,,,0.00,WUHU216CR1000,2013-04-18 16:07:00,
2013-04-18 09:17:00,59.0,43.6,0.00,NNE,25,2.3,5.6,57,0.00,,,0.00,WUHU216CR1000,2013-04-18 16:17:00,
2013-04-18 09:22:00,59.0,43.6,0.00,NNE,25,2.3,5.6,57,0.00,,,0.00,WUHU216CR1000,2013-04-18 16:22:00,
2013-04-18 09:32:00,59.9,44.4,0.00,West,276,2.4,5.3,56,0.00,,,0.00,WUHU216CR1000,2013-04-18 16:32:00,
2013-04-18 09:37:00,59.9,44.4,0.00,West,276,2.4,5.3,56,0.00,,,0.00,WUHU216CR1000,2013-04-18 16:37:00,
2013-04-18 09:47:00,61.1,44.9,0.00,South,189,2.1,4.3,55,0.00,,,0.00,WUHU216CR1000,2013-04-18 16:47:00,
2013-04-18 09:52:00,61.1,44.9,0.00,South,189,2.1,4.3,55,0.00,,,0.00,WUHU216CR1000,2013-04-18 16:52:00,
2013-04-18 10:02:00,63.1,44.8,0.00,SSW,196,1.8,4.1,51,0.00,,,0.00,WUHU216CR1000,2013-04-18 17:02:00,
2013-04-18 10:07:00,63.1,44.8,0.00,SSW,196,1.8,4.1,51,0.00,,,0.00,WUHU216CR1000,2013-04-18 17:07:00,
2013-04-18 12:02:00,72.6,32.1,0.00,SSW,194,3.4,7.7,23,0.00,,,0.00,WUHU216CR1000,2013-04-18 19:02:00,
2013-04-18 12:07:00,72.6,32.1,0.00,SSW,194,3.4,7.7,23,0.00,,,0.00,WUHU216CR1000,2013-04-18 19:07:00,
2013-04-18 12:17:00,72.9,31.8,0.00,WSW,238,3.0,8.1,22,0.00,,,0.00,WUHU216CR1000,2013-04-18 19:17:00,
2013-04-18 12:22:00,72.9,31.8,0.00,WSW,238,3.0,8.1,22,0.00,,,0.00,WUHU216CR1000,2013-04-18 19:22:00,
2013-04-18 12:32:00,73.7,32.1,0.00,SW,230,3.6,8.6,22,0.00,,,0.00,WUHU216CR1000,2013-04-18 19:32:00,
2013-04-18 12:37:00,73.7,32.1,0.00,SW,230,3.6,8.6,22,0.00,,,0.00,WUHU216CR1000,2013-04-18 19:37:00,
2013-04-18 12:47:00,73.9,32.3,0.00,SSW,205,3.1,7.9,22,0.00,,,0.00,WUHU216CR1000,2013-04-18 19:47:00,
2013-04-18 12:52:00,73.9,32.3,0.00,SSW,205,3.1,7.9,22,0.00,,,0.00,WUHU216CR1000,2013-04-18 19:52:00,
2013-04-18 13:02:00,74.7,31.4,0.00,East,89,3.9,7.0,20,0.00,,,0.00,WUHU216CR1000,2013-04-18 20:02:00,
2013-04-18 13:07:00,74.7,31.4,0.00,East,89,3.9,7.0,20,0.00,,,0.00,WUHU216CR1000,2013-04-18 20:07:00,
2013-04-18 13:17:00,75.1,32.3,0.00,SE,145,3.0,6.2,21,0.00,,,0.00,WUHU216CR1000,2013-04-18 20:17:00,
2013-04-18 13:22:00,75.1,32.3,0.00,SE,145,3.0,6.2,21,0.00,,,0.00,WUHU216CR1000,2013-04-18 20:22:00,
2013-04-18 13:32:00,75.3,33.1,0.00,SE,136,3.2,7.0,21,0.00,,,0.00,WUHU216CR1000,2013-04-18 20:32:00,
2013-04-18 13:37:00,75.3,33.1,0.00,SE,136,3.2,7.0,21,0.00,,,0.00,WUHU216CR1000,2013-04-18 20:37:00,
2013-04-18 13:47:00,75.8,33.4,0.00,East,99,1.7,6.1,21,0.00,,,0.00,WUHU216CR1000,2013-04-18 20:47:00,
2013-04-18 13:52:00,75.8,33.4,0.00,East,99,1.7,6.1,21,0.00,,,0.00,WUHU216CR1000,2013-04-18 20:52:00,
2013-04-18 14:02:00,75.7,36.2,0.00,SSE,161,4.4,9.6,24,0.00,,,0.00,WUHU216CR1000,2013-04-18 21:02:00,
2013-04-18 14:07:00,75.7,36.2,0.00,SSE,161,4.4,9.6,24,0.00,,,0.00,WUHU216CR1000,2013-04-18 21:07:00,
2013-04-18 14:17:00,76.6,38.2,0.00,SSW,199,3.9,10.6,25,0.00,,,0.00,WUHU216CR1000,2013-04-18 21:17:00,
2013-04-18 14:22:00,76.6,38.2,0.00,SSW,199,3.9,10.6,25,0.00,,,0.00,WUHU216CR1000,2013-04-18 21:22:00,
2013-04-18 14:32:00,76.4,37.1,0.00,WSW,245,6.1,13.0,24,0.00,,,0.00,WUHU216CR1000,2013-04-18 21:32:00,
2013-04-18 14:37:00,76.4,37.1,0.00,WSW,245,6.1,13.0,24,0.00,,,0.00,WUHU216CR1000,2013-04-18 21:37:00,
2013-04-18 14:47:00,76.5,36.2,0.00,SW,231,5.8,12.8,23,0.00,,,0.00,WUHU216CR1000,2013-04-18 21:47:00,
2013-04-18 14:52:00,76.5,36.2,0.00,SW,231,5.8,12.8,23,0.00,,,0.00,WUHU216CR1000,2013-04-18 21:52:00,
2013-04-18 15:02:00,76.3,35.5,0.00,WSW,249,5.8,11.2,23,0.00,,,0.00,WUHU216CR1000,2013-04-18 22:02:00,
2013-04-18 15:07:00,76.3,35.5,0.00,WSW,249,5.8,11.2,23,0.00,,,0.00,WUHU216CR1000,2013-04-18 22:07:00,
2013-04-18 15:17:00,76.0,35.0,0.00,WSW,245,6.0,12.3,23,0.00,,,0.00,WUHU216CR1000,2013-04-18 22:17:00,
2013-04-18 15:22:00,76.0,35.0,0.00,WSW,245,6.0,12.3,23,0.00,,,0.00,WUHU216CR1000,2013-04-18 22:22:00,
2013-04-18 15:32:00,75.7,34.7,0.00,WSW,240,6.4,12.9,23,0.00,,,0.00,WUHU216CR1000,2013-04-18 22:32:00,
2013-04-18 15:37:00,75.7,34.7,0.00,WSW,240,6.4,12.9,23,0.00,,,0.00,WUHU216CR1000,2013-04-18 22:37:00,
2013-04-18 15:47:00,76.0,35.0,0.00,West,262,5.7,13.2,22,0.00,,,0.00,WUHU216CR1000,2013-04-18 22:47:00,
2013-04-18 15:52:00,76.0,35.0,0.00,West,262,5.7,13.2,22,0.00,,,0.00,WUHU216CR1000,2013-04-18 22:52:00,
2013-04-18 16:02:00,75.0,33.9,0.00,WSW,255,6.0,14.3,22,0.00,,,0.00,WUHU216CR1000,2013-04-18 23:02:00,
2013-04-18 16:07:00,75.0,33.9,0.00,WSW,255,6.0,14.3,22,0.00,,,0.00,WUHU216CR1000,2013-04-18 23:07:00,
2013-04-18 16:17:00,74.8,34.5,0.00,SW,236,6.9,13.3,23,0.00,,,0.00,WUHU216CR1000,2013-04-18 23:17:00,
2013-04-18 16:22:00,74.8,34.5,0.00,SW,236,6.9,13.3,23,0.00,,,0.00,WUHU216CR1000,2013-04-18 23:22:00,
2013-04-18 16:32:00,74.3,34.4,0.00,SW,228,6.9,14.6,23,0.00,,,0.00,WUHU216CR1000,2013-04-18 23:32:00,
2013-04-18 16:37:00,74.3,34.4,0.00,SW,228,6.9,14.6,23,0.00,,,0.00,WUHU216CR1000,2013-04-18 23:37:00,
2013-04-18 16:47:00,74.1,33.5,0.00,WSW,237,7.0,15.1,23,0.00,,,0.00,WUHU216CR1000,2013-04-18 23:47:00,
2013-04-18 16:52:00,74.1,33.5,0.00,WSW,237,7.0,15.1,23,0.00,,,0.00,WUHU216CR1000,2013-04-18 23:52:00,
2013-04-18 17:02:00,74.0,33.5,0.00,SW,229,6.7,13.0,23,0.00,,,0.00,WUHU216CR1000,2013-04-19 00:02:00,
2013-04-18 17:07:00,74.0,33.5,0.00,SW,229,6.7,13.0,23,0.00,,,0.00,WUHU216CR1000,2013-04-19 00:07:00,
2013-04-18 17:17:00,74.6,33.6,0.00,SW,235,5.3,11.0,22,0.00,,,0.00,WUHU216CR1000,2013-04-19 00:17:00,
2013-04-18 17:22:00,74.6,33.6,0.00,SW,235,5.3,11.0,22,0.00,,,0.00,WUHU216CR1000,2013-04-19 00:22:00,
2013-04-18 17:32:00,74.6,33.5,0.00,SSW,208,5.7,10.9,22,0.00,,,0.00,WUHU216CR1000,2013-04-19 00:32:00,
2013-04-18 17:37:00,74.6,33.5,0.00,SSW,208,5.7,10.9,22,0.00,,,0.00,WUHU216CR1000,2013-04-19 00:37:00,
2013-04-18 17:47:00,75.3,34.6,0.00,SW,217,3.6,9.2,23,0.00,,,0.00,WUHU216CR1000,2013-04-19 00:47:00,
2013-04-18 17:52:00,75.3,34.6,0.00,SW,217,3.6,9.2,23,0.00,,,0.00,WUHU216CR1000,2013-04-19 00:52:00,
2013-04-18 18:02:00,75.2,34.7,0.00,SSW,206,4.1,10.1,23,0.00,,,0.00,WUHU216CR1000,2013-04-19 01:02:00,
2013-04-18 18:07:00,75.2,34.7,0.00,SSW,206,4.1,10.1,23,0.00,,,0.00,WUHU216CR1000,2013-04-19 01:07:00,
2013-04-18 18:17:00,74.8,35.0,0.00,SW,225,3.9,7.9,23,0.00,,,0.00,WUHU216CR1000,2013-04-19 01:17:00,
2013-04-18 18:22:00,74.8,35.0,0.00,SW,225,3.9,7.9,23,0.00,,,0.00,WUHU216CR1000,2013-04-19 01:22:00,
2013-04-18 18:32:00,74.8,34.9,0.00,SSW,212,3.5,8.1,23,0.00,,,0.00,WUHU216CR1000,2013-04-19 01:32:00,
2013-04-18 18:37:00,74.8,34.9,0.00,SSW,212,3.5,8.1,23,0.00,,,0.00,WUHU216CR1000,2013-04-19 01:37:00,
2013-04-18 18:47:00,74.2,35.0,0.00,SSW,199,2.5,5.6,24,0.00,,,0.00,WUHU216CR1000,2013-04-19 01:47:00,
2013-04-18 18:52:00,74.2,35.0,0.00,SSW,199,2.5,5.6,24,0.00,,,0.00,WUHU216CR1000,2013-04-19 01:52:00,
2013-04-18 19:02:00,73.6,35.7,0.00,South,171,2.6,5.5,25,0.00,,,0.00,WUHU216CR1000,2013-04-19 02:02:00,
2013-04-18 19:07:00,73.6,35.7,0.00,South,171,2.6,5.5,25,0.00,,,0.00,WUHU216CR1000,2013-04-19 02:07:00,
2013-04-18 19:17:00,72.9,36.1,0.00,SSE,164,2.7,4.6,26,0.00,,,0.00,WUHU216CR1000,2013-04-19 02:17:00,
2013-04-18 19:22:00,72.9,36.1,0.00,SSE,164,2.7,4.6,26,0.00,,,0.00,WUHU216CR1000,2013-04-19 02:22:00,
2013-04-18 19:32:00,72.1,36.8,0.00,SSE,158,1.9,4.4,28,0.00,,,0.00,WUHU216CR1000,2013-04-19 02:32:00,
2013-04-18 19:37:00,72.1,36.8,0.00,SSE,158,1.9,4.4,28,0.00,,,0.00,WUHU216CR1000,2013-04-19 02:37:00,
2013-04-18 19:47:00,69.8,40.1,0.00,ESE,123,3.5,7.7,34,0.00,,,0.00,WUHU216CR1000,2013-04-19 02:47:00,
2013-04-18 19:52:00,69.8,40.1,0.00,ESE,123,3.5,7.7,34,0.00,,,0.00,WUHU216CR1000,2013-04-19 02:52:00,
2013-04-18 20:02:00,65.7,46.8,0.00,East,97,4.7,6.5,51,0.00,,,0.00,WUHU216CR1000,2013-04-19 03:02:00,
2013-04-18 20:07:00,65.7,46.8,0.00,East,97,4.7,6.5,51,0.00,,,0.00,WUHU216CR1000,2013-04-19 03:07:00,
2013-04-18 20:17:00,62.9,47.8,0.00,East,93,4.3,6.9,58,0.00,,,0.00,WUHU216CR1000,2013-04-19 03:17:00,
2013-04-18 20:22:00,62.9,47.8,0.00,East,93,4.3,6.9,58,0.00,,,0.00,WUHU216CR1000,2013-04-19 03:22:00,
2013-04-18 20:32:00,60.4,47.7,0.00,East,85,4.1,6.8,63,0.00,,,0.00,WUHU216CR1000,2013-04-19 03:32:00,
2013-04-18 20:37:00,60.4,47.7,0.00,East,85,4.1,6.8,63,0.00,,,0.00,WUHU216CR1000,2013-04-19 03:37:00,
2013-04-18 20:47:00,58.6,47.1,0.00,East,89,4.2,7.1,65,0.00,,,0.00,WUHU216CR1000,2013-04-19 03:47:00,
2013-04-18 20:52:00,58.6,47.1,0.00,East,89,4.2,7.1,65,0.00,,,0.00,WUHU216CR1000,2013-04-19 03:52:00,
2013-04-18 21:02:00,57.5,46.2,0.00,ENE,71,2.9,6.1,66,0.00,,,0.00,WUHU216CR1000,2013-04-19 04:02:00,
2013-04-18 21:07:00,57.5,46.2,0.00,ENE,71,2.9,6.1,66,0.00,,,0.00,WUHU216CR1000,2013-04-19 04:07:00,
2013-04-18 21:17:00,56.5,45.9,0.00,ENE,77,2.4,4.9,68,0.00,,,0.00,WUHU216CR1000,2013-04-19 04:17:00,
2013-04-18 21:22:00,56.5,45.9,0.00,ENE,77,2.4,4.9,68,0.00,,,0.00,WUHU216CR1000,2013-04-19 04:22:00,
2013-04-18 21:32:00,55.7,45.6,0.00,East,81,2.2,3.3,69,0.00,,,0.00,WUHU216CR1000,2013-04-19 04:32:00,
2013-04-18 21:37:00,55.7,45.6,0.00,East,81,2.2,3.3,69,0.00,,,0.00,WUHU216CR1000,2013-04-19 04:37:00,
2013-04-18 21:47:00,54.8,45.9,0.00,NE,47,1.0,2.4,72,0.00,,,0.00,WUHU216CR1000,2013-04-19 04:47:00,
2013-04-18 21:52:00,54.8,45.9,0.00,NE,47,1.0,2.4,72,0.00,,,0.00,WUHU216CR1000,2013-04-19 04:52:00,
2013-04-18 22:02:00,54.4,45.4,0.00,ENE,66,0.5,1.3,72,0.00,,,0.00,WUHU216CR1000,2013-04-19 05:02:00,
2013-04-18 22:07:00,54.4,45.4,0.00,ENE,66,0.5,1.3,72,0.00,,,0.00,WUHU216CR1000,2013-04-19 05:07:00,
2013-04-18 22:17:00,53.5,45.2,0.00,East,88,1.1,2.6,73,0.00,,,0.00,WUHU216CR1000,2013-04-19 05:17:00,
2013-04-18 22:22:00,53.5,45.2,0.00,East,88,1.1,2.6,73,0.00,,,0.00,WUHU216CR1000,2013-04-19 05:22:00,
2013-04-18 22:32:00,53.0,45.1,0.00,ENE,69,0.6,2.6,75,0.00,,,0.00,WUHU216CR1000,2013-04-19 05:32:00,
2013-04-18 22:37:00,53.0,45.1,0.00,ENE,69,0.6,2.6,75,0.00,,,0.00,WUHU216CR1000,2013-04-19 05:37:00,
2013-04-18 22:47:00,52.7,45.3,0.00,ENE,62,0.6,1.3,76,0.00,,,0.00,WUHU216CR1000,2013-04-19 05:47:00,
2013-04-18 22:52:00,52.7,45.3,0.00,ENE,62,0.6,1.3,76,0.00,,,0.00,WUHU216CR1000,2013-04-19 05:52:00,
2013-04-18 23:02:00,52.6,45.2,0.00,ENE,77,0.1,1.0,76,0.00,,,0.00,WUHU216CR1000,2013-04-19 06:02:00,
2013-04-18 23:07:00,52.6,45.2,0.00,ENE,77,0.1,1.0,76,0.00,,,0.00,WUHU216CR1000,2013-04-19 06:07:00,
2013-04-18 23:17:00,51.8,45.0,0.00,NE,51,0.2,1.1,78,0.00,,,0.00,WUHU216CR1000,2013-04-19 06:17:00,
2013-04-18 23:22:00,51.8,45.0,0.00,NE,51,0.2,1.1,78,0.00,,,0.00,WUHU216CR1000,2013-04-19 06:22:00,
2013-04-18 23:32:00,51.5,44.9,0.00,ENE,66,0.7,1.6,78,0.00,,,0.00,WUHU216CR1000,2013-04-19 06:32:00,
2013-04-18 23:37:00,51.5,44.9,0.00,ENE,66,0.7,1.6,78,0.00,,,0.00,WUHU216CR1000,2013-04-19 06:37:00,
2013-04-18 23:47:00,50.5,45.0,0.00,North,2,0.6,1.6,81,0.00,,,0.00,WUHU216CR1000,2013-04-19 06:47:00,
2013-04-18 23:52:00,50.5,45.0,0.00,North,2,0.6,1.6,81,0.00,,,0.00,WUHU216CR1000,2013-04-19 06:52:00,